Tracking 28565 objects as of 3-Mar-2024
HD Live streaming from Space Station
objects crossing your sky now

YAOGAN-36 01A

Track YAOGAN-36 01A now!
10-day predictions


NORAD ID: 53943
Int'l Code: 2022-120A
Perigee: 501.1 km
Apogee: 505.3 km
Inclination: 35.0 °
Period: 94.5 minutes
Semi major axis: 6874 km
RCS: Unknown
Launch date: September 26, 2022
Source: People's Republic of China (PRC)
Launch site: Xichang Space Center, China (XSC)
Your satellite tracking list
Your tracking list is empty




NASA's NSSDC Master Catalog

Two Line Element Set (TLE):
1 53943U 22120A   24063.20131427  .00014472  00000-0  59667-3 0  9990
2 53943  34.9945 127.8039 0003107  96.4392 263.6676 15.23246553 79934
Source of the keplerian elements: AFSPC